Northeast Philadelphia, PA

4:16 AM EDT on September 24, 2017 (GMT -0400)
Northeast Philadelphia

Weather History for KPNE - October, 2014

Change the Weather History Date:

Thursday, October 23, 2014

  Actual Average Record
Temperature  
Mean Temperature 54 °F -  
Max Temperature 59 °F 60 °F 81 °F (2007)
Min Temperature 51 °F 41 °F 30 °F (1997)
Degree Days  
Heating Degree Days 11    
Growing Degree Days 4 (Base 50)    
Moisture  
Dew Point 44 °F    
Average Humidity 70    
Maximum Humidity 80    
Minimum Humidity 57    
Precipitation  
Precipitation 0.18 in - - ()
Sea Level Pressure  
Sea Level Pressure 29.79 in    
Wind  
Wind Speed 15 mph (NNW)    
Max Wind Speed 21 mph    
Max Gust Speed 30 mph    
Visibility 9 miles    
Events Rain    
Averages and records for this station are not official NWS values.
T = Trace of Precipitation, MM = Missing Value Source: NWS Daily Summary

Daily Weather History Graph

Daily Weather History Graph

Search for Another Location

Airport or City:

Trip Planner

Search our weather history database for the weather conditions in past years. The results will help you decide how hot, cold, wet, or windy it might be!

Date:

Astronomy

Oct. 23, 2014 Rise Set
Actual Time 7:19 AM EDT 6:08 PM EDT
Civil Twilight 6:51 AM EDT 6:36 PM EDT
Nautical Twilight 6:19 AM EDT 7:08 PM EDT
Astronomical Twilight 5:48 AM EDT 7:39 PM EDT
Moon 6:56 AM EDT (10/23) 6:09 PM EDT (10/23)
Length of Visible Light 11h 45m
Length of Day
10h 49m
Waning Crescent, 0% of the Moon is Illuminated
Oct 23
Waning Crescent
Oct 23
New
Oct 30
First Quarter
Nov 6
Full
Nov 14
Last Quarter

Hourly Weather History & Observations

Time (EDT) Temp. Dew Point Humidity Pressure Visibility Wind Dir Wind Speed Gust Speed Precip Events Conditions
12:54 AM 53.1 °F 46.9 °F 80% 29.78 in 9.0 mi NNW 15.0 mph 24.2 mph 0.06 in Rain Light Rain
1:54 AM 53.1 °F 46.9 °F 80% 29.76 in 5.0 mi NNW 17.3 mph 26.5 mph 0.02 in Rain Light Rain
2:54 AM 53.1 °F 46.0 °F 77% 29.76 in 10.0 mi NNW 12.7 mph - 0.00 in   Overcast
3:11 AM 53.1 °F 46.0 °F 77% 29.75 in 10.0 mi NNW 15.0 mph 23.0 mph N/A   Overcast
3:54 AM 53.1 °F 46.0 °F 77% 29.75 in 10.0 mi NNW 13.8 mph 23.0 mph N/A   Overcast
4:18 AM 54.0 °F 45.0 °F 72% 29.75 in 10.0 mi North 16.1 mph 23.0 mph N/A   Overcast
4:54 AM 54.0 °F 44.1 °F 69% 29.76 in 10.0 mi North 13.8 mph 25.3 mph N/A   Overcast
5:43 AM 54.0 °F 44.1 °F 69% 29.76 in 10.0 mi NNW 17.3 mph 26.5 mph N/A   Overcast
5:54 AM 54.0 °F 45.0 °F 72% 29.77 in 10.0 mi North 15.0 mph 25.3 mph 0.00 in Rain Light Rain
6:54 AM 52.0 °F 46.0 °F 80% 29.77 in 7.0 mi NNW 10.4 mph - 0.03 in Rain Light Rain
7:54 AM 51.1 °F 45.0 °F 80% 29.77 in 4.0 mi NW 12.7 mph - 0.04 in Rain Light Rain
8:54 AM 51.1 °F 44.1 °F 77% 29.78 in 9.0 mi NW 12.7 mph 21.9 mph 0.00 in Rain Light Rain
9:54 AM 52.0 °F 45.0 °F 77% 29.78 in 6.0 mi NNW 13.8 mph 27.6 mph 0.01 in Rain Light Rain
10:54 AM 53.1 °F 45.0 °F 74% 29.78 in 10.0 mi NNW 12.7 mph 25.3 mph 0.02 in   Overcast
11:54 AM 53.1 °F 45.0 °F 74% 29.78 in 9.0 mi NNW 17.3 mph 27.6 mph 0.00 in   Overcast
12:54 PM 55.0 °F 44.1 °F 67% 29.78 in 10.0 mi NNW 15.0 mph 25.3 mph 0.00 in   Overcast
1:54 PM 55.0 °F 44.1 °F 67% 29.77 in 10.0 mi NW 17.3 mph 24.2 mph 0.00 in Rain Light Rain
2:54 PM 55.0 °F 43.0 °F 64% 29.78 in 10.0 mi NW 20.7 mph 29.9 mph 0.00 in   Overcast
3:54 PM 57.0 °F 43.0 °F 59% 29.77 in 10.0 mi NNW 20.7 mph 28.8 mph N/A   Overcast
4:54 PM 57.0 °F 42.1 °F 57% 29.78 in 10.0 mi NNW 16.1 mph 24.2 mph 0.00 in   Overcast
5:54 PM 55.9 °F 42.1 °F 60% 29.80 in 10.0 mi NNW 15.0 mph - N/A   Overcast
6:54 PM 55.0 °F 42.1 °F 62% 29.82 in 10.0 mi NNW 18.4 mph 25.3 mph N/A   Mostly Cloudy
7:54 PM 54.0 °F 42.1 °F 64% 29.82 in 10.0 mi NW 11.5 mph - N/A   Clear
8:54 PM 55.0 °F 42.1 °F 62% 29.86 in 10.0 mi NW 11.5 mph 20.7 mph N/A   Overcast
9:54 PM 54.0 °F 42.1 °F 64% 29.85 in 10.0 mi NNW 17.3 mph 23.0 mph N/A   Overcast
10:54 PM 55.0 °F 42.1 °F 62% 29.84 in 10.0 mi NNW 17.3 mph 24.2 mph 0.00 in   Overcast
11:54 PM 54.0 °F 42.1 °F 64% 29.83 in 10.0 mi NNW 10.4 mph - N/A   Overcast